EST,Max TemperatureF,Mean TemperatureF,Min TemperatureF,Max Dew PointF,MeanDew PointF,Min DewpointF,Max Humidity, Mean Humidity, Min Humidity, Max Sea Level PressureIn, Mean Sea Level PressureIn, Min Sea Level PressureIn, Max VisibilityMiles, Mean VisibilityMiles, Min VisibilityMiles, Max Wind SpeedMPH, Mean Wind SpeedMPH, Max Gust SpeedMPH,PrecipitationIn, CloudCover, Events, WindDirDegrees
2012-11-1,71,58,46,45,34,23,87,47,17,29.99,29.94,29.89,10,10,10,17,5,22,0.00,0,,270
2012-11-2,78,60,42,50,40,27,72,47,29,30.05,29.99,29.92,10,10,10,13,4,21,0.00,0,,253
2012-11-3,84,68,51,59,52,46,94,61,30,30.12,30.05,30.00,10,10,10,8,2,,0.00,0,,267
2012-11-4,87,73,59,63,57,50,100,66,29,30.05,30.00,29.92,10,10,5,15,5,22,0.00,1,Rain-Thunderstorm,250
2012-11-5,69,60,51,55,50,45,88,69,43,30.05,30.01,29.97,10,10,7,10,4,9,0.00,1,,15
2012-11-6,57,50,44,54,48,41,100,87,71,29.99,29.94,29.90,10,9,7,13,6,18,0.00,6,Rain,47
2012-11-7,59,52,44,48,44,39,100,81,59,30.02,29.95,29.87,10,10,4,13,4,20,0.00,7,Rain,325
2012-11-8,66,54,42,46,43,37,100,74,35,30.18,30.12,30.02,10,10,7,9,4,,0.00,0,,324
2012-11-9,71,54,37,45,40,34,100,66,25,30.31,30.24,30.18,10,10,10,5,1,,0.00,0,,286
2012-11-10,75,58,42,48,42,36,100,59,24,30.38,30.33,30.27,10,10,10,7,1,,0.00,0,,148
2012-11-11,78,64,50,61,54,45,100,73,44,30.43,30.36,30.33,10,10,10,13,3,18,0.00,3,,90
2012-11-12,75,67,59,68,64,59,100,92,73,30.33,30.26,30.20,10,8,1,8,3,,0.00,4,Rain,126
2012-11-13,73,65,55,64,59,52,100,83,61,30.27,30.21,30.17,10,10,7,13,5,18,0.00,7,,356
2012-11-14,55,53,51,52,49,46,94,85,77,30.35,30.28,30.22,10,10,7,13,9,20,0.00,8,Thunderstorm,51
2012-11-15,51,48,46,50,48,46,100,94,82,30.27,30.24,30.21,10,7,2,12,6,,0.00,8,Rain-Thunderstorm,9
2012-11-16,60,51,42,48,46,43,100,87,63,30.30,30.26,30.23,10,9,5,12,5,17,0.00,5,,33
2012-11-17,64,53,42,45,40,34,100,69,37,30.36,30.31,30.28,10,10,7,15,8,25,0.00,1,,34
2012-11-18,68,60,51,52,47,41,72,64,52,30.33,30.28,30.24,10,10,10,15,10,21,0.00,5,,19
2012-11-19,68,62,55,55,52,48,88,74,60,30.26,30.20,30.15,10,10,10,12,7,17,0.00,7,,11
2012-11-20,69,60,50,54,52,48,100,78,53,30.18,30.11,30.06,10,10,7,12,4,16,0.00,1,,2
2012-11-21,71,58,46,52,45,37,100,70,33,30.15,30.11,30.07,10,10,5,12,2,16,0.00,0,,9
2012-11-22,69,56,44,43,39,34,87,61,28,30.25,30.19,30.15,10,10,10,13,4,,0.00,0,,19
2012-11-23,75,57,39,46,43,37,93,61,34,30.21,30.12,30.02,10,10,10,12,2,16,0.00,0,,251
2012-11-24,64,54,44,50,33,23,72,45,22,30.13,30.07,30.02,10,10,10,13,7,20,0.00,0,,315
2012-11-25,64,48,33,36,28,21,81,52,20,30.20,30.15,30.10,10,10,10,6,3,,0.00,0,,315
2012-11-26,71,52,33,41,32,27,93,54,19,30.27,30.20,30.15,10,10,10,8,1,,0.00,0,,229
2012-11-27,55,50,44,54,49,37,100,88,66,30.23,30.18,30.12,10,9,0,7,1,,0.00,7,Fog-Rain,265
2012-11-28,60,52,44,54,51,43,100,92,67,30.38,30.30,30.19,10,5,0,9,4,,0.00,7,Fog,357
2012-11-29,66,52,37,50,44,37,100,81,49,30.43,30.38,30.34,10,8,3,12,2,,0.00,0,,69
2012-11-30,73,58,44,55,50,43,93,75,47,30.38,30.32,30.27,10,10,10,9,3,,0.00,3,,80